Oakland, CA

2:04 AM PDT on June 21, 2018 (GMT -0700)
Metro Oakland International

Weather History for KOAK - November, 2017

Change the Weather History Date:

Tuesday, November 7, 2017

  Actual Average Record
Temperature  
Mean Temperature 52 °F 56 °F  
Max Temperature 64 °F 65 °F 77 °F (1955)
Min Temperature 40 °F 47 °F 39 °F (1948)
Degree Days  
Heating Degree Days 13 9  
Month to date heating degree days 69 56  
Since 1 July heating degree days 262 408  
Cooling Degree Days 0 0  
Month to date cooling degree days 0 0  
Year to date cooling degree days 312 137  
Growing Degree Days 3 (Base 50)    
Moisture  
Dew Point 43 °F    
Average Humidity 66    
Maximum Humidity 89    
Minimum Humidity 43    
Precipitation  
Precipitation 0.00 in 0.07 in 1.07 in (1984)
Month to date precipitation 0.37 0.54  
Year to date precipitation 20.62 15.24  
Sea Level Pressure  
Sea Level Pressure 30.10 in    
Wind  
Wind Speed 5 mph (ESE)    
Max Wind Speed 10 mph    
Max Gust Speed 14 mph    
Visibility 10 miles    
Events      
T = Trace of Precipitation, MM = Missing Value Source: NWS Daily Summary

Daily Weather History Graph

Daily Weather History Graph

Search for Another Location

Airport or City:

Astronomy

Nov. 07, 2017 Rise Set
Actual Time 6:40 AM PST 5:03 PM PST
Civil Twilight 6:13 AM PST 5:31 PM PST
Nautical Twilight 5:42 AM PST 6:02 PM PST
Astronomical Twilight 5:11 AM PST 6:33 PM PST
Moon 8:40 PM PST (11/7) 10:22 AM PST (11/7)
Length of Visible Light 11h 18m
Length of Day
10h 23m
Waning Gibbous, 82% of the Moon is Illuminated
Nov 7
Waning Gibbous
Nov 10
Last Quarter
Nov 18
New
Nov 26
First Quarter
Dec 3
Full

Hourly Weather History & Observations

Time (PST) Temp. Windchill Dew Point Humidity Pressure Visibility Wind Dir Wind Speed Gust Speed Precip Events Conditions
12:53 AM 46.0 °F 44.8 °F 39.9 °F 79% 30.15 in 10.0 mi Variable 3.5 mph - N/A   Clear
1:53 AM 48.0 °F - 41.0 °F 77% 30.15 in 10.0 mi ESE 6.9 mph - N/A   Clear
2:53 AM 46.0 °F 43.9 °F 41.0 °F 83% 30.15 in 10.0 mi NNE 4.6 mph - N/A   Clear
3:53 AM 46.0 °F - 39.9 °F 79% 30.14 in 10.0 mi Calm Calm - N/A   Clear
4:53 AM 42.1 °F - 39.9 °F 92% 30.14 in 10.0 mi Calm Calm - N/A   Clear
5:53 AM 44.1 °F 41.5 °F 39.9 °F 85% 30.14 in 10.0 mi East 4.6 mph - N/A   Clear
6:53 AM 46.0 °F 44.8 °F 41.0 °F 83% 30.16 in 10.0 mi East 3.5 mph - N/A   Partly Cloudy
7:53 AM 51.1 °F - 42.1 °F 71% 30.17 in 10.0 mi ESE 5.8 mph - N/A   Partly Cloudy
8:53 AM 55.0 °F - 41.0 °F 59% 30.17 in 10.0 mi ESE 5.8 mph - N/A   Partly Cloudy
9:53 AM 57.9 °F - 44.1 °F 60% 30.15 in 10.0 mi SSE 9.2 mph - N/A   Partly Cloudy
10:53 AM 57.0 °F - 46.0 °F 67% 30.14 in 10.0 mi South 6.9 mph - N/A   Partly Cloudy
11:53 AM 57.9 °F - 46.9 °F 67% 30.12 in 10.0 mi WSW 5.8 mph - N/A   Partly Cloudy
12:53 PM 57.9 °F - 48.0 °F 70% 30.09 in 10.0 mi West 8.1 mph - N/A   Partly Cloudy
1:53 PM 61.0 °F - 46.0 °F 58% 30.07 in 10.0 mi West 8.1 mph - N/A   Partly Cloudy
2:53 PM 64.0 °F - 41.0 °F 43% 30.06 in 10.0 mi WNW 9.2 mph - N/A   Scattered Clouds
3:53 PM 63.0 °F - 45.0 °F 52% 30.05 in 10.0 mi WNW 8.1 mph - N/A   Partly Cloudy
4:53 PM 59.0 °F - 48.0 °F 67% 30.04 in 10.0 mi NW 8.1 mph - N/A   Partly Cloudy
5:53 PM 57.9 °F - 44.1 °F 60% 30.04 in 10.0 mi North 3.5 mph - N/A   Partly Cloudy
6:53 PM 55.0 °F - 45.0 °F 69% 30.05 in 10.0 mi Calm Calm - N/A   Scattered Clouds
7:53 PM 55.9 °F - 44.1 °F 64% 30.05 in 10.0 mi ENE 3.5 mph - N/A   Partly Cloudy
8:53 PM 52.0 °F - 43.0 °F 71% 30.06 in 10.0 mi Calm Calm - N/A   Partly Cloudy
9:53 PM 51.1 °F - 43.0 °F 74% 30.07 in 10.0 mi ESE 5.8 mph - N/A   Scattered Clouds
10:53 PM 53.1 °F - 46.0 °F 77% 30.07 in 10.0 mi SE 5.8 mph - N/A   Mostly Cloudy
11:53 PM 52.0 °F - 46.9 °F 83% 30.07 in 10.0 mi ESE 4.6 mph - N/A   Overcast